Anaktuvuk Pass, AK

5:47 AM AKDT on September 22, 2017 (GMT -0800)
Anaktuvuk Pass

Weather History for PAKP - November, 2013

Change the Weather History Date:

Wednesday, November 20, 2013

  Actual Average Record
Temperature  
Mean Temperature -8 °F -  
Max Temperature -2 °F 4 °F 26 °F (2004)
Min Temperature -16 °F -2 °F -27 °F (2005)
Degree Days  
Heating Degree Days 73    
Moisture  
Dew Point -15 °F    
Average Humidity 62    
Maximum Humidity 66    
Minimum Humidity 55    
Precipitation  
Precipitation 0.00 in - - ()
Sea Level Pressure  
Sea Level Pressure 30.11 in    
Wind  
Wind Speed 11 mph (NE)    
Max Wind Speed 15 mph    
Max Gust Speed 17 mph    
Visibility 6 miles    
Events      
Averages and records for this station are not official NWS values.
T = Trace of Precipitation, MM = Missing Value Source: NWS Daily Summary

Daily Weather History Graph

Daily Weather History Graph

Search for Another Location

Airport or City:

Trip Planner

Search our weather history database for the weather conditions in past years. The results will help you decide how hot, cold, wet, or windy it might be!

Date:

Astronomy

Nov. 20, 2013 Rise Set
Actual Time 10:49 AM AKST 2:55 PM AKST
Civil Twilight 9:20 AM AKST 4:24 PM AKST
Nautical Twilight 8:03 AM AKST 5:40 PM AKST
Astronomical Twilight 6:56 AM AKST 6:47 PM AKST
Moon 5:50 PM AKST (11/20) 1:21 PM AKST (11/20)
Length of Visible Light 7h 03m
Length of Day
4h 06m
Waning Gibbous, 90% of the Moon is Illuminated
Nov 20
Waning Gibbous
Nov 25
Last Quarter
Dec 2
New
Dec 9
First Quarter
Dec 17
Full

Hourly Weather History & Observations

Time (AKST) Temp. Windchill Dew Point Humidity Pressure Visibility Wind Dir Wind Speed Gust Speed Precip Events Conditions
12:16 AM -4.0 °F -23.0 °F -14.8 °F 60% 30.00 in 2.0 mi NNE 12.7 mph - N/A   Overcast
12:36 AM -4.0 °F -23.0 °F -14.8 °F 60% 30.00 in 2.0 mi NE 12.7 mph - N/A   Overcast
12:56 AM -4.0 °F -21.2 °F -14.8 °F 60% 30.00 in 2.0 mi NE 10.4 mph - N/A   Overcast
1:16 AM -4.0 °F -21.2 °F -13.0 °F 65% 30.00 in 2.0 mi NE 10.4 mph - N/A   Overcast
1:36 AM -4.0 °F -23.0 °F -13.0 °F 65% 30.00 in 1.8 mi NE 12.7 mph - N/A   Overcast
1:56 AM -4.0 °F -23.0 °F -13.0 °F 65% 30.01 in 2.0 mi NE 12.7 mph - N/A   Overcast
2:16 AM -4.0 °F -22.1 °F -14.8 °F 60% 30.01 in 3.0 mi NE 11.5 mph - N/A   Overcast
2:36 AM -4.0 °F -23.7 °F -14.8 °F 60% 30.01 in 3.0 mi NE 13.8 mph - N/A   Overcast
2:56 AM -4.0 °F -23.0 °F -14.8 °F 60% 30.02 in 2.5 mi NE 12.7 mph - N/A   Overcast
3:16 AM -4.0 °F -22.1 °F -14.8 °F 60% 30.03 in 2.5 mi NE 11.5 mph - N/A   Overcast
3:36 AM -5.8 °F -25.2 °F -14.8 °F 65% 30.03 in 3.0 mi NNE 12.7 mph - N/A   Overcast
3:56 AM -5.8 °F -24.4 °F -14.8 °F 65% 30.04 in 5.0 mi NNE 11.5 mph - N/A   Overcast
4:16 AM -5.8 °F -24.4 °F -14.8 °F 65% 30.03 in 5.0 mi NE 11.5 mph - N/A   Overcast
4:36 AM -5.8 °F -26.0 °F -14.8 °F 65% 30.04 in 5.0 mi NE 13.8 mph - N/A   Overcast
4:56 AM -5.8 °F -26.8 °F -14.8 °F 65% 30.04 in 5.0 mi NE 15.0 mph - N/A   Overcast
5:16 AM -5.8 °F -25.2 °F -14.8 °F 65% 30.04 in 7.0 mi NE 12.7 mph - N/A   Overcast
5:36 AM -5.8 °F -25.2 °F -14.8 °F 65% 30.04 in 10.0 mi NE 12.7 mph - N/A   Overcast
5:56 AM -5.8 °F -25.2 °F -14.8 °F 65% 30.05 in 10.0 mi NNE 12.7 mph - N/A   Overcast
6:16 AM -5.8 °F -25.2 °F -14.8 °F 65% 30.06 in 8.0 mi NNE 12.7 mph - N/A   Overcast
6:36 AM -5.8 °F -25.2 °F -14.8 °F 65% 30.06 in 5.0 mi NNE 12.7 mph - N/A   Overcast
6:56 AM -5.8 °F -24.4 °F -14.8 °F 65% 30.06 in 5.0 mi NE 11.5 mph - N/A   Overcast
7:16 AM -5.8 °F -24.4 °F -14.8 °F 65% 30.07 in 7.0 mi NNE 11.5 mph - N/A   Overcast
7:36 AM -4.0 °F -21.2 °F -14.8 °F 60% 30.06 in 10.0 mi NNE 10.4 mph - N/A   Overcast
7:56 AM -4.0 °F -21.2 °F -14.8 °F 60% 30.07 in 10.0 mi NE 10.4 mph - N/A   Overcast
8:16 AM -2.2 °F -18.0 °F -14.8 °F 55% 30.07 in 9.0 mi NE 9.2 mph - N/A   Overcast
8:36 AM -2.2 °F -18.0 °F -14.8 °F 55% 30.09 in 10.0 mi ENE 9.2 mph - N/A   Overcast
8:56 AM -2.2 °F -18.0 °F -14.8 °F 55% 30.09 in 10.0 mi ENE 9.2 mph - N/A   Overcast
9:16 AM -2.2 °F -20.7 °F -14.8 °F 55% 30.09 in 10.0 mi ENE 12.7 mph - N/A   Overcast
9:36 AM -2.2 °F -19.9 °F -14.8 °F 55% 30.10 in 7.0 mi NE 11.5 mph - N/A   Overcast
9:56 AM -2.2 °F -18.9 °F -13.0 °F 60% 30.10 in 4.0 mi ENE 10.4 mph - N/A   Overcast
10:16 AM -2.2 °F - -13.0 °F 60% 30.11 in 5.0 mi North - - N/A   Overcast
10:36 AM -2.2 °F -18.0 °F -13.0 °F 60% 30.11 in 5.0 mi NE 9.2 mph - N/A   Overcast
10:56 AM -2.2 °F -18.0 °F -11.2 °F 66% 30.12 in 4.0 mi NE 9.2 mph - N/A   Overcast
11:16 AM -2.2 °F -18.0 °F - N/A% 30.12 in 2.5 mi NE 9.2 mph - N/A   Overcast
11:36 AM -2.2 °F -18.9 °F -11.2 °F 66% 30.12 in 2.5 mi NE 10.4 mph - N/A   Overcast
11:56 AM -2.2 °F -18.0 °F -11.2 °F 66% 30.13 in 2.5 mi NE 9.2 mph - N/A   Overcast
12:16 PM -2.2 °F -18.9 °F -11.2 °F 66% 30.13 in 3.0 mi NE 10.4 mph - N/A   Overcast
12:36 PM -2.2 °F -16.8 °F -11.2 °F 66% 30.14 in 3.0 mi NE 8.1 mph - N/A   Overcast
12:56 PM -2.2 °F -18.0 °F -11.2 °F 66% 30.14 in 3.0 mi ENE 9.2 mph - N/A   Overcast
1:16 PM -2.2 °F -18.9 °F -11.2 °F 66% 30.14 in 3.0 mi NE 10.4 mph - N/A   Overcast
1:36 PM -2.2 °F -19.9 °F -11.2 °F 66% 30.15 in 5.0 mi NE 11.5 mph - N/A   Overcast
1:56 PM -2.2 °F -19.9 °F - N/A% 30.15 in 2.0 mi NE 11.5 mph - N/A   Overcast
2:16 PM -2.2 °F -21.5 °F -11.2 °F 66% 30.15 in 4.0 mi ENE 13.8 mph - N/A   Overcast
2:36 PM -2.2 °F -20.7 °F -11.2 °F 66% 30.15 in 4.0 mi NE 12.7 mph - N/A   Overcast
2:56 PM -2.2 °F -20.7 °F -11.2 °F 66% 30.15 in 5.0 mi ENE 12.7 mph - N/A   Overcast
3:16 PM -2.2 °F -22.2 °F - N/A% 30.15 in 5.0 mi NE 15.0 mph - N/A   Overcast
3:36 PM -2.2 °F -19.9 °F -13.0 °F 60% 30.15 in 7.0 mi NE 11.5 mph - N/A   Overcast
3:56 PM -2.2 °F -20.7 °F -13.0 °F 60% 30.15 in 8.0 mi ENE 12.7 mph 17.3 mph N/A   Overcast
4:16 PM -2.2 °F -20.7 °F -13.0 °F 60% 30.15 in 10.0 mi NE 12.7 mph - N/A   Overcast
4:36 PM -2.2 °F -21.5 °F -11.2 °F 66% 30.15 in 10.0 mi NE 13.8 mph - N/A   Overcast
4:56 PM -2.2 °F -21.5 °F -13.0 °F 60% 30.16 in 10.0 mi ENE 13.8 mph - N/A   Overcast
5:16 PM -2.2 °F -20.7 °F -13.0 °F 60% 30.16 in 10.0 mi NE 12.7 mph - N/A   Overcast
5:36 PM -2.2 °F -19.9 °F -13.0 °F 60% 30.16 in 5.0 mi NE 11.5 mph - N/A   Overcast
5:56 PM -4.0 °F -21.2 °F -14.8 °F 60% 30.17 in 5.0 mi ENE 10.4 mph - N/A   Overcast
6:16 PM -4.0 °F -23.0 °F -13.0 °F 65% 30.17 in 9.0 mi NE 12.7 mph - N/A   Overcast
6:36 PM -5.8 °F -22.4 °F -14.8 °F 65% 30.18 in 9.0 mi ENE 9.2 mph - N/A   Overcast
6:56 PM -5.8 °F -25.2 °F -14.8 °F 65% 30.19 in 5.0 mi ENE 12.7 mph - N/A   Overcast
7:16 PM -4.0 °F -23.0 °F -13.0 °F 65% 30.18 in 8.0 mi NE 12.7 mph - N/A   Overcast
7:56 PM -4.0 °F -17.8 °F -14.8 °F 60% 30.18 in 5.0 mi ENE 6.9 mph - N/A   Mostly Cloudy
8:16 PM -7.6 °F -23.4 °F -16.6 °F 65% 30.18 in 7.0 mi North 8.1 mph - N/A   Clear
8:36 PM -7.6 °F -22.1 °F -16.6 °F 65% 30.18 in 10.0 mi North 6.9 mph - N/A   Partly Cloudy
8:56 PM -7.6 °F -23.4 °F -18.4 °F 59% 30.17 in 10.0 mi NNE 8.1 mph - N/A   Clear
9:16 PM -9.4 °F -24.3 °F -20.2 °F 59% 30.17 in 10.0 mi North 6.9 mph - N/A   Clear
9:36 PM -11.2 °F -23.0 °F -20.2 °F 64% 30.17 in 10.0 mi NNE 4.6 mph - N/A   Clear
9:56 PM -11.2 °F -23.0 °F -20.2 °F 64% 30.17 in 10.0 mi North 4.6 mph - N/A   Clear
10:16 PM -11.2 °F -27.8 °F -20.2 °F 64% 30.17 in 10.0 mi NNE 8.1 mph - N/A   Clear
10:36 PM -13.0 °F -31.3 °F -23.8 °F 59% 30.17 in 10.0 mi NNE 9.2 mph - N/A   Clear
10:56 PM -14.8 °F -32.2 °F -23.8 °F 64% 30.17 in 10.0 mi NNE 8.1 mph - N/A   Clear
11:16 PM -13.0 °F -33.4 °F -23.8 °F 59% 30.16 in 10.0 mi NNE 11.5 mph - N/A   Clear
11:36 PM -14.8 °F -32.2 °F -23.8 °F 64% 30.16 in 10.0 mi NE 8.1 mph - N/A   Clear
11:56 PM -16.6 °F -34.4 °F -27.4 °F 58% 30.16 in 10.0 mi North 8.1 mph - N/A   Clear